Regional Weather Roundup
Issued by NWS

Home | Current Version | Previous Version | Text Only | Print | Product List | Glossary On
Versions: 1 2 3 4 5 6 7 8 9 10 11 12 13 14 15 16 17 18 19 20 21 22 23 24 25 26 27
000
ASUS46 KPQR 251810
RWROR

OREGON REGIONAL WEATHER ROUNDUP
NATIONAL WEATHER SERVICE PORTLAND OR
1100 AM PDT THU MAY 25 2017

NOTE: "FAIR" INDICATES FEW OR NO CLOUDS BELOW 12,000 FEET WITH
NO SIGNIFICANT WEATHER AND/OR OBSTRUCTIONS TO VISIBILITY.

ORZ001>013-251900-
NORTHWEST OREGON


CITY           SKY/WX    TMP DP  RH WIND       PRES   REMARKS
ASTORIA        MOSUNNY   58  47  66 N8        29.91S
6HR MIN TEMP:  43; 6HR MAX TEMP:  58;

NEWPORT        SUNNY     54  46  76 NW14      29.92F
PORTLAND       PTSUNNY   57  44  62 CALM      29.90F
6HR MIN TEMP:  50; 6HR MAX TEMP:  57;

VANCOUVER WA   CLOUDY    56  47  71 W6        29.89F
6HR MIN TEMP:  51; 6HR MAX TEMP:  56;

SCAPPOOSE      SUNNY     59  48  67 E8        29.88F
6HR MIN TEMP:  44; 6HR MAX TEMP:  59;

HILLSBORO      MOSUNNY   58  46  64 CALM      29.88F
6HR MIN TEMP:  46; 6HR MAX TEMP:  61;

AURORA         MOSUNNY   59  44  57 VRB3      29.89F
6HR MIN TEMP:  50; 6HR MAX TEMP:  60;

MCMINNVILLE    PTSUNNY   61  46  57 NW6       29.89F
6HR MIN TEMP:  48; 6HR MAX TEMP:  62;

SALEM          PTSUNNY   62  46  55 VRB7      29.87F
6HR MIN TEMP:  44; 6HR MAX TEMP:  62;

CORVALLIS      MOSUNNY   63  43  48 N6        29.89S
EUGENE         MOSUNNY   59  47  64 N14G21    29.88S
6HR MIN TEMP:  41; 6HR MAX TEMP:  60;

$$

ORZ021-028-251900-
SOUTHWEST OREGON


CITY           SKY/WX    TMP DP  RH WIND       PRES   REMARKS
NORTH BEND     SUNNY     57  46  67 N17       29.88S
6HR MIN TEMP:  50; 6HR MAX TEMP:  57;

BROOKINGS      SUNNY     63  48  58 W7        29.75F
ROSEBURG       SUNNY     59  43  55 VRB3      29.85F
6HR MIN TEMP:  47; 6HR MAX TEMP:  59;

SEXTON SUMMIT  SUNNY     51  41  68 N3        29.81S
6HR MIN TEMP:  37; 6HR MAX TEMP:  51;

MEDFORD        SUNNY     63  41  44 VRB5      29.79F
6HR MIN TEMP:  45; 6HR MAX TEMP:  63;

$$

ORZ014>016-041-251900-
COLUMBIA GORGE


CITY           SKY/WX    TMP DP  RH WIND       PRES   REMARKS
TROUTDALE      MOSUNNY   58  45  62 W5        29.89F
6HR MIN TEMP:  51; 6HR MAX TEMP:  58;

HOOD RIVER     SUNNY     63  43  48 NW6       29.83F
THE DALLES     SUNNY     67  44  43 N7        29.82F
6HR MIN TEMP:  45; 6HR MAX TEMP:  67;

$$

ORZ029>031-041-044-049-050-061>064-502-503-505>511-251900-
EASTERN OREGON


CITY           SKY/WX    TMP DP  RH WIND       PRES   REMARKS
REDMOND        SUNNY     58  32  37 VRB3      29.82F
6HR MIN TEMP:  33; 6HR MAX TEMP:  58;

BEND           SUNNY     55  34  44 NE7       29.77S
PRINEVILLE     SUNNY     55  34  44 MISG      29.83F
KLAMATH FALLS  SUNNY     58  30  34 W3        29.78F
6HR MIN TEMP:  32; 6HR MAX TEMP:  58;

HERMISTON      CLOUDY    63  41  44 VRB7      29.84S
6HR MIN TEMP:  45; 6HR MAX TEMP:  63;

PENDLETON      CLOUDY    57  43  59 NW6       29.84S
6HR MIN TEMP:  43; 6HR MAX TEMP:  58;

JOHN DAY       SUNNY     57  36  45 CALM      29.81F
MEACHAM        CLOUDY    50  31  48 VRB5      29.85S
6HR MIN TEMP:  34; 6HR MAX TEMP:  51;

LA GRANDE      CLOUDY    55  36  47 N7        29.82S
6HR MIN TEMP:  43; 6HR MAX TEMP:  55;

BAKER CITY     MOSUNNY   57  33  40 NW15      29.80F
6HR MIN TEMP:  36; 6HR MAX TEMP:  58;

BURNS          MOSUNNY   55  29  36 CALM      29.80F
6HR MIN TEMP:  33; 6HR MAX TEMP:  55;

ROME             N/A     59  26  28 N8        29.77F
6HR MIN TEMP:  34; 6HR MAX TEMP:  59;

ONTARIO        MOSUNNY   64  31  28 VRB7      29.77F
6HR MIN TEMP:  52; 6HR MAX TEMP:  65;

$$




USA.gov is the U.S. government's official web portal to all federal, state and local government web resources and services.